Rancho Santa Fe (307) Station Data

Red Flag Warning: No
Fire Weather Zone: 243
SDGE Region: North Coast
Lat/Lon: 33.033/-117.189

Observations

Time Wind Speed/Gust Temp(F) RH Fuel Moist Fuel Temp(F) Dewpt(F) Tmax(F) Tmin(F) Accum Precip 10-min Precip SL Press(mb)
5/24 8:20am 238 1 G 5 59° 93% - - 57° 59.1° 57.1° - - -
5/24 8:10am 219 2 G 5 58° 94% - - 57° 59.1° 57.1° - - -
5/24 8:00am 251 2 G 7 58° 95% - - 57° 59.1° 57.1° - - -
5/24 7:50am 75 2 G 6 58° 95% - - 57° 59.1° 57.1° - - -
5/24 7:40am 344 1 G 4 58° 95% - - 57° 59.1° 57.1° - - -
5/24 7:30am 359 1 G 4 58° 96% - - 57° 59.1° 57.1° - - -
5/24 7:20am 86 1 G 2 58° 96% - - 57° 59.1° 57.1° - - -
5/24 7:10am 147 1 G 1 58° 96% - - 56° 59.1° 57.1° - - -
5/24 7:00am 287 2 G 5 58° 96% - - 56° 59.1° 57.1° - - -
5/24 6:50am 255 2 G 5 58° 96% - - 56° 59.1° 57.1° - - -
5/24 6:40am 290 1 G 3 58° 96% - - 57° 59.1° 57.1° - - -
5/24 6:30am 213 1 G 5 58° 96% - - 56° 59.1° 57.1° - - -
5/24 6:20am 239 2 G 6 58° 96% - - 57° 59.1° 57.1° - - -
5/24 6:10am 271 2 G 4 58° 96% - - 57° 59.1° 57.1° - - -
5/24 6:00am 262 2 G 4 58° 96% - - 57° 59.1° 57.1° - - -
5/24 5:50am 245 2 G 5 58° 96% - - 57° 59.1° 57.1° - - -
5/24 5:40am 249 2 G 4 58° 96% - - 57° 59.1° 57.1° - - -
5/24 5:30am 224 1 G 3 58° 96% - - 57° 59.1° 57.1° - - -
5/24 5:20am 211 2 G 4 58° 96% - - 57° 59.1° 57.1° - - -
5/24 5:10am 73 1 G 3 58° 96% - - 57° 59.1° 57.1° - - -
5/24 5:00am 74 2 G 5 58° 96% - - 57° 59.1° 57.1° - - -
5/24 4:50am 64 4 G 8 58° 96% - - 57° 59.1° 57.1° - - -
5/24 4:40am 59 4 G 8 58° 96% - - 57° 59.1° 57.1° - - -
5/24 4:30am 74 3 G 6 58° 96% - - 56° 59.1° 57.1° - - -
5/24 4:20am 122 2 G 4 58° 96% - - 56° 59.1° 57.1° - - -
5/24 4:10am 57 3 G 6 57° 95% - - 56° 59.1° 57.1° - - -
5/24 4:00am 61 2 G 4 58° 95% - - 56° 59.1° 57.1° - - -
5/24 3:50am 64 2 G 3 58° 95% - - 56° 59.1° 57.2° - - -
5/24 3:40am 14 1 G 2 58° 95% - - 56° 59.1° 57.2° - - -
5/24 3:30am 347 1 G 2 58° 95% - - 56° 59.1° 57.2° - - -
5/24 3:20am 274 1 G 2 58° 95% - - 56° 59.1° 57.2° - - -
5/24 3:10am 217 3 G 5 58° 95% - - 56° 59.1° 57.2° - - -
5/24 3:00am 197 1 G 2 58° 95% - - 57° 59.1° 57.4° - - -
5/24 2:50am 181 1 G 3 58° 95% - - 56° 59.1° 57.4° - - -
5/24 2:40am 251 1 G 4 58° 95% - - 57° 59.1° 57.6° - - -
5/24 2:30am 222 1 G 4 58° 95% - - 57° 59.1° 57.6° - - -
5/24 2:20am 310 1 G 3 58° 95% - - 57° 59.1° 57.6° - - -
5/24 2:10am 298 1 G 3 58° 95% - - 57° 59.1° 57.6° - - -
5/24 2:00am 356 1 G 1 58° 95% - - 57° 59.1° 57.6° - - -
5/24 1:50am 348 1 G 1 58° 95% - - 57° 59.1° 57.6° - - -
5/24 1:40am 344 1 G 2 58° 95% - - 57° 59.1° 57.6° - - -
5/24 1:30am 332 1 G 2 58° 95% - - 57° 59.1° 57.7° - - -
5/24 1:20am 8 1 G 2 58° 95% - - 57° 59.1° 57.7° - - -
5/24 1:10am 28 1 G 1 58° 95% - - 57° 59.1° 57.9° - - -
5/24 1:00am 75 1 G 1 58° 95% - - 57° 59.1° 57.9° - - -
5/24 12:50am 78 1 G 2 58° 95% - - 57° 59.1° 57.9° - - -
5/24 12:40am 134 1 G 2 58° 95% - - 57° 59.1° 57.9° - - -
5/24 12:30am 91 1 G 1 58° 95% - - 57° 59.1° 57.9° - - -
5/24 12:20am 118 1 G 2 58° 94% - - 57° 59.1° 58° - - -
5/24 12:10am 193 1 G 2 59° 94% - - 57° 59.1° 58.1° - - -
5/24 12:00am 219 1 G 4 59° 94% - - 57° 76.9° 56.7° - - -
5/23 11:50pm 246 2 G 4 59° 94% - - 57° 76.9° 56.7° - - -
5/23 11:40pm 233 1 G 5 59° 93% - - 57° 76.9° 56.7° - - -
5/23 11:30pm 259 1 G 4 59° 93% - - 57° 76.9° 56.7° - - -
5/23 11:20pm 262 1 G 2 59° 94% - - 57° 76.9° 56.7° - - -
5/23 11:10pm 261 1 G 3 59° 94% - - 57° 76.9° 56.7° - - -
5/23 11:00pm 283 1 G 2 58° 94% - - 57° 76.9° 56.7° - - -
5/23 10:50pm 322 1 G 1 58° 94% - - 56° 76.9° 56.7° - - -
5/23 10:40pm 302 1 G 1 58° 93% - - 56° 76.9° 56.7° - - -
5/23 10:30pm 238 1 G 1 58° 93% - - 56° 76.9° 56.7° - - -
5/23 10:20pm 238 1 G 1 58° 93% - - 56° 76.9° 56.7° - - -
5/23 10:10pm 238 1 G 1 59° 93% - - 56° 76.9° 56.7° - - -
5/23 10:00pm 237 1 G 2 59° 93% - - 57° 76.9° 56.7° - - -
5/23 9:50pm 240 1 G 3 59° 92% - - 57° 76.9° 56.7° - - -
5/23 9:40pm 237 1 G 2 59° 92% - - 57° 76.9° 56.7° - - -
5/23 9:30pm 253 1 G 2 60° 92% - - 57° 76.9° 56.7° - - -
5/23 9:20pm 250 1 G 2 60° 91% - - 57° 76.9° 56.7° - - -
5/23 9:10pm 244 2 G 3 60° 91% - - 57° 76.9° 56.7° - - -
5/23 9:00pm 220 2 G 4 60° 90% - - 57° 76.9° 56.7° - - -
5/23 8:50pm 231 1 G 4 61° 89% - - 57° 76.9° 56.7° - - -
5/23 8:40pm 236 2 G 4 61° 87% - - 57° 76.9° 56.7° - - -
5/23 8:30pm 245 3 G 5 62° 85% - - 57° 76.9° 56.7° - - -
5/23 8:20pm 290 1 G 2 63° 83% - - 57° 76.9° 56.7° - - -
5/23 8:10pm 306 1 G 2 63° 82% - - 57° 76.9° 56.7° - - -
5/23 8:00pm 270 2 G 4 63° 81% - - 57° 76.9° 56.7° - - -
5/23 7:50pm 275 3 G 4 64° 80% - - 57° 76.9° 56.7° - - -
5/23 7:40pm 263 2 G 5 64° 78% - - 58° 76.9° 56.7° - - -
5/23 7:30pm 294 1 G 4 65° 77% - - 58° 76.9° 56.7° - - -
5/23 7:20pm 282 2 G 4 66° 75% - - 58° 76.9° 56.7° - - -
5/23 7:10pm 296 2 G 5 67° 73% - - 58° 76.9° 56.7° - - -
5/23 7:00pm 279 3 G 5 67° 72% - - 58° 76.9° 56.7° - - -
5/23 6:50pm 284 3 G 6 67° 72% - - 58° 76.9° 56.7° - - -
5/23 6:40pm 297 3 G 6 68° 70% - - 58° 76.9° 56.7° - - -
5/23 6:30pm 269 4 G 7 68° 69% - - 57° 76.9° 56.7° - - -
5/23 6:20pm 263 4 G 7 68° 69% - - 57° 76.9° 56.7° - - -
5/23 6:10pm 271 4 G 8 68° 69% - - 57° 76.9° 56.7° - - -
5/23 6:00pm 279 4 G 8 68° 68% - - 57° 76.9° 56.7° - - -
5/23 5:50pm 270 4 G 10 68° 67% - - 57° 76.9° 56.7° - - -
5/23 5:40pm 279 5 G 9 68° 67% - - 57° 76.9° 56.7° - - -
5/23 5:30pm 262 4 G 7 69° 66% - - 57° 76.9° 56.7° - - -
5/23 5:20pm 256 6 G 10 68° 68% - - 57° 76.9° 56.7° - - -
5/23 5:10pm 263 6 G 11 68° 68% - - 57° 76.9° 56.7° - - -
5/23 5:00pm 248 6 G 9 67° 69% - - 57° 76.9° 56.7° - - -
5/23 4:50pm 257 7 G 11 67° 69% - - 57° 76.9° 56.7° - - -
5/23 4:40pm 259 7 G 10 67° 70% - - 57° 76.9° 56.7° - - -
5/23 4:30pm 251 8 G 13 67° 69% - - 57° 76.9° 56.7° - - -
5/23 4:20pm 258 8 G 12 70° 64% - - 57° 76.9° 56.7° - - -
5/23 4:10pm 243 7 G 12 74° 57% - - 57° 76.9° 56.7° - - -
5/23 4:00pm 220 3 G 9 76° 51% - - 57° 76.9° 56.7° - - -
5/23 3:50pm 224 3 G 6 76° 52% - - 57° 76.9° 56.7° - - -
5/23 3:40pm 261 2 G 6 75° 55% - - 57° 75.7° 56.7° - - -
5/23 3:30pm 228 2 G 6 74° 58% - - 58° 75.5° 56.7° - - -
5/23 3:20pm 253 3 G 6 72° 60% - - 58° 74.2° 56.7° - - -
5/23 3:10pm 253 3 G 7 71° 63% - - 58° 74.2° 56.7° - - -
5/23 3:00pm 290 2 G 6 70° 65% - - 58° 74.2° 56.7° - - -
5/23 2:50pm 261 2 G 6 69° 67% - - 58° 74.2° 56.7° - - -
5/23 2:40pm 242 3 G 7 68° 69% - - 58° 74.2° 56.7° - - -
5/23 2:30pm 251 3 G 7 67° 72% - - 57° 74.2° 56.7° - - -
5/23 2:20pm 288 3 G 8 66° 74% - - 58° 74.2° 56.7° - - -
5/23 2:10pm 261 4 G 9 66° 75% - - 58° 74.2° 56.7° - - -
5/23 2:00pm 277 4 G 11 65° 78% - - 58° 74.2° 56.7° - - -
5/23 1:50pm 273 5 G 14 65° 78% - - 58° 74.2° 56.7° - - -
5/23 1:40pm 268 5 G 11 65° 79% - - 58° 74.2° 56.7° - - -
5/23 1:30pm 276 5 G 10 65° 79% - - 58° 74.2° 56.7° - - -
5/23 1:20pm 274 6 G 12 65° 77% - - 58° 74.2° 56.7° - - -
5/23 1:10pm 261 5 G 10 65° 77% - - 58° 74.2° 56.7° - - -
5/23 1:00pm 274 6 G 11 66° 76% - - 58° 74.2° 56.7° - - -
5/23 12:50pm 270 6 G 12 65° 77% - - 58° 74.2° 56.7° - - -
5/23 12:40pm 282 5 G 10 65° 77% - - 58° 74.2° 56.7° - - -
5/23 12:30pm 276 5 G 11 66° 74% - - 58° 74.2° 56.7° - - -
5/23 12:20pm 267 5 G 11 66° 77% - - 58° 74.2° 56.7° - - -
5/23 12:10pm 264 6 G 12 65° 78% - - 58° 74.2° 56.7° - - -
5/23 12:00pm 275 6 G 14 65° 77% - - 58° 74.2° 56.7° - - -
5/23 11:50am 251 7 G 12 66° 77% - - 58° 74.2° 56.7° - - -
5/23 11:40am 243 8 G 14 66° 77% - - 59° 74.2° 56.7° - - -
5/23 11:30am 259 7 G 12 66° 78% - - 58° 74.2° 56.7° - - -
5/23 11:20am 256 8 G 15 66° 77% - - 59° 74.2° 56.7° - - -
5/23 11:10am 242 9 G 15 66° 77% - - 59° 74.2° 56.7° - - -
5/23 11:00am 247 9 G 16 67° 74% - - 59° 74.2° 56.7° - - -
5/23 10:50am 234 8 G 11 69° 72% - - 59° 74.2° 56.7° - - -
5/23 10:40am 239 8 G 12 69° 72% - - 59° 74.2° 56.7° - - -
5/23 10:30am 234 8 G 13 71° 68% - - 60° 74.2° 56.7° - - -
5/23 10:20am 252 5 G 10 73° 63% - - 60° 74.2° 56.7° - - -
5/23 10:10am 238 4 G 8 73° 62% - - 59° 74.2° 56.7° - - -
5/23 10:00am 247 3 G 7 73° 63% - - 59° 73.3° 56.7° - - -
5/23 9:50am 257 4 G 8 72° 62% - - 59° 73.2° 56.7° - - -
5/23 9:40am 285 2 G 5 71° 64% - - 59° 73° 56.7° - - -
5/23 9:30am 318 1 G 4 70° 66% - - 58° 70.9° 56.7° - - -
5/23 9:20am 324 1 G 4 69° 69% - - 58° 69.7° 56.7° - - -
5/23 9:10am 31 1 G 5 68° 72% - - 58° 68.9° 56.7° - - -
5/23 9:00am 123 2 G 5 66° 74% - - 58° 67.2° 56.7° - - -
5/23 8:50am 130 2 G 5 65° 77% - - 58° 65.6° 56.7° - - -
5/23 8:40am 151 1 G 4 64° 80% - - 58° 64.7° 56.7° - - -
5/23 8:30am 75 2 G 5 62° 86% - - 58° 63.8° 56.7° - - -
5/23 8:20am 54 3 G 6 60° 93% - - 58° 61.5° 56.7° - - -
5/23 8:10am 66 3 G 6 59° 95% - - 58° 59.8° 56.7° - - -
5/23 8:00am 63 1 G 2 59° 95% - - 58° 59.6° 56.7° - - -
5/23 7:50am 31 1 G 3 59° 96% - - 58° 59.4° 56.7° - - -
5/23 7:40am 307 1 G 2 59° 96% - - 57° 59.1° 56.7° - - -
5/23 7:30am 273 1 G 3 58° 96% - - 57° 59.1° 56.7° - - -
5/23 7:20am 285 1 G 4 58° 96% - - 57° 59.1° 56.7° - - -
5/23 7:10am 321 1 G 3 58° 96% - - 57° 58.9° 56.7° - - -
5/23 7:00am 309 1 G 2 58° 96% - - 57° 58.9° 56.7° - - -
5/23 6:50am 238 1 G 2 58° 96% - - 57° 58.9° 56.7° - - -
5/23 6:40am 239 1 G 3 58° 96% - - 57° 58.9° 56.7° - - -
5/23 6:30am 274 1 G 3 58° 96% - - 57° 58.9° 56.7° - - -
5/23 6:20am 343 1 G 2 58° 96% - - 57° 58.9° 56.7° - - -
5/23 6:10am 194 1 G 1 58° 96% - - 57° 58.9° 56.7° - - -
5/23 6:00am 138 1 G 2 58° 96% - - 57° 58.9° 56.7° - - -